FW3711 Weather Reports


Display with metric or nautical units.
time (UTC)temp
F
wind
direction
speed
MPH
gust
MPH
rain 1hr
in
rain 24hr
in
rain mn
in
humidity
%
barometer
mb
20210515164019 80 360 0.0 0.0 0.00 0.33 0.01 45 1015.5
20210515163517 79 360 0.0 0.0 0.00 0.33 0.01 45 1015.7
20210515163034 78 151 0.0 0.0 0.00 0.33 0.01 53 1015.7
20210515162535 78 138 0.0 0.0 0.00 0.33 0.01 54 1015.8
20210515162013 78 131 0.0 0.0 0.00 0.33 0.01 57 1015.7
20210515161517 77 142 0.0 0.0 0.00 0.33 0.01 56 1015.7
20210515160509 77 105 0.0 0.0 0.00 0.33 0.01 57 1016.1
20210515160010 77 105 0.0 0.0 0.00 0.33 0.01 56 1016.2
20210515155507 77 96 0.0 0.0 0.00 0.33 0.01 55 1016.2
20210515155005 78 120 0.0 0.0 0.00 0.33 0.01 53 1016.3
20210515154506 78 135 0.0 0.0 0.00 0.33 0.01 51 1016.1
20210515153558 77 148 0.0 0.0 0.00 0.33 0.01 52 1016.2
20210515153130 76 140 0.0 0.0 0.00 0.33 0.01 52 1016.5
20210515152557 76 157 0.0 0.0 0.00 0.33 0.01 53 1016.4
20210515152057 75 144 0.0 0.0 0.00 0.33 0.01 54 1016.5
20210515151723 74 143 0.0 0.0 0.00 0.33 0.01 56 1016.4
20210515151105 74 155 0.0 0.0 0.00 0.33 0.01 56 1016.5
20210515150554 73 134 0.0 0.0 0.00 0.33 0.01 57 1016.4
20210515150151 73 123 0.0 0.0 0.00 0.33 0.01 57 1016.5
20210515145609 73 360 0.0 0.0 0.00 0.33 0.01 57 1016.7
20210515145047 72 114 0.0 0.0 0.00 0.33 0.01 58 1016.7
20210515144653 72 110 0.0 0.0 0.00 0.33 0.01 60 1016.7
20210515144057 72 360 0.0 0.0 0.00 0.33 0.01 59 1016.8
20210515143604 71 102 0.0 0.0 0.00 0.33 0.01 60 1016.7
20210515143132 71 103 0.0 0.0 0.00 0.33 0.01 61 1016.7
20210515142547 71 105 0.0 0.0 0.00 0.33 0.01 61 1016.7
20210515142037 70 110 0.0 0.0 0.00 0.33 0.01 62 1016.6
20210515141548 70 105 0.0 0.0 0.00 0.33 0.01 63 1016.7
20210515141036 69 108 0.0 0.0 0.00 0.33 0.01 63 1016.5
20210515140109 69 122 0.0 0.0 0.00 0.33 0.01 65 1016.3
20210515135530 69 159 0.0 0.0 0.00 0.33 0.01 64 1016.4
20210515135033 68 360 0.0 0.0 0.00 0.33 0.01 65 1016.5
20210515134622 67 248 0.0 0.0 0.00 0.33 0.01 66 1016.4
20210515134035 67 249 0.0 0.0 0.00 0.33 0.01 67 1016.4
20210515133523 66 250 0.0 0.0 0.00 0.33 0.01 67 1016.3
20210515133102 66 250 0.0 0.0 0.00 0.33 0.01 68 1016.4
20210515132522 65 281 0.0 0.0 0.00 0.33 0.01 68 1016.1
20210515132021 65 282 0.0 0.0 0.00 0.33 0.01 69 1016.2
20210515131534 65 283 0.0 0.0 0.00 0.33 0.01 69 1016.2
20210515131021 64 284 0.0 0.0 0.00 0.33 0.01 70 1016.2
20210515130528 64 285 0.0 0.0 0.00 0.33 0.01 70 1016.1
20210515130034 63 286 0.0 0.0 0.00 0.33 0.01 71 1016.2
20210515125518 63 283 0.0 0.0 0.00 0.33 0.01 71 1016.3
20210515125017 63 282 0.0 0.0 0.00 0.33 0.01 71 1016.3
20210515124616 63 281 0.0 0.0 0.00 0.33 0.01 71 1016.2
20210515124023 62 281 0.0 0.0 0.00 0.33 0.01 72 1016.1
20210515123511 62 282 0.0 0.0 0.00 0.33 0.01 72 1016.2
20210515123037 62 360 0.0 0.0 0.00 0.33 0.01 71 1016.2
20210515122508 62 281 0.0 0.0 0.00 0.33 0.01 72 1016.2
20210515122010 62 360 0.0 0.0 0.00 0.33 0.01 72 1016.4
20210515121517 62 360 0.0 0.0 0.00 0.33 0.01 72 1016.3
20210515121006 63 292 0.0 0.0 0.00 0.33 0.01 72 1016.5
20210515120505 63 360 0.0 0.0 0.00 0.33 0.01 71 1016.2
20210515115510 63 206 0.0 0.0 0.00 0.33 0.01 70 1015.9
20210515115004 63 202 0.0 0.0 0.00 0.33 0.01 71 1015.7
20210515114505 62 196 0.0 0.0 0.00 0.33 0.01 72 1015.5
20210515114012 63 198 0.0 0.0 0.00 0.33 0.01 72 1015.6
20210515113202 62 200 0.0 0.0 0.00 0.33 0.01 73 1015.7
20210515112542 63 192 0.0 0.0 0.00 0.33 0.01 73 1015.8
20210515112056 63 360 0.0 0.0 0.01 0.33 0.01 72 1015.8
20210515111549 63 195 0.0 0.0 0.01 0.33 0.01 72 1015.7
20210515111031 63 200 0.0 0.0 0.01 0.33 0.01 73 1015.8
20210515110545 63 206 0.0 0.0 0.01 0.33 0.01 73 1015.9
20210515110001 63 194 0.0 0.0 0.01 0.33 0.01 73 1015.7
20210515105600 63 193 0.0 0.0 0.01 0.33 0.01 73 1015.6
20210515105502 63 200 0.0 0.0 0.01 0.33 0.01 73 1015.8
20210515104701 63 196 0.0 0.0 0.01 0.33 0.01 73 1015.6
20210515104058 63 188 0.0 0.0 0.01 0.33 0.01 72 1015.6
20210515103614 64 192 0.0 0.0 0.01 0.33 0.01 71 1015.5
20210515103029 65 214 0.0 0.0 0.01 0.33 0.01 69 1015.2
20210515102532 65 208 0.0 0.0 0.01 0.33 0.01 68 1015.0
20210515101554 65 215 0.0 0.0 0.00 0.32 0.00 66 1015.1
20210515101027 66 202 0.0 0.0 0.00 0.32 0.00 65 1015.6
20210515100528 66 202 0.0 0.0 0.00 0.32 0.00 65 1015.7
20210515100127 66 207 0.0 0.0 0.00 0.32 0.00 66 1015.8
20210515095533 65 202 0.0 0.0 0.00 0.32 0.00 69 1015.8
20210515095028 66 182 0.0 0.0 0.00 0.32 0.00 69 1016.2
20210515094610 66 192 0.0 0.0 0.00 0.32 0.00 68 1016.2
20210515094027 66 193 0.0 0.0 0.00 0.32 0.00 69 1016.2
20210515093517 66 186 0.0 0.0 0.00 0.32 0.00 70 1016.4
20210515093015 65 207 0.0 0.0 0.00 0.32 0.00 69 1016.8
20210515092514 65 220 0.0 0.0 0.00 0.32 0.00 72 1017.2
20210515092012 64 235 0.0 0.0 0.00 0.32 0.00 73 1017.5
20210515091519 64 360 0.0 0.0 0.00 0.32 0.00 76 1017.7
20210515091016 64 360 0.0 0.0 0.00 0.32 0.00 78 1018.1
20210515090514 64 360 0.0 0.0 0.00 0.32 0.32 79 1018.4
20210515090129 63 360 0.0 0.0 0.00 0.32 0.32 80 1018.4
20210515085539 63 226 0.0 0.0 0.00 0.32 0.32 82 1017.9
20210515085040 63 360 0.0 0.0 0.00 0.32 0.32 83 1018.1
20210515084626 63 225 0.0 0.0 0.00 0.32 0.32 83 1018.1
20210515084039 63 360 0.0 0.0 0.00 0.32 0.32 82 1018.3
20210515083538 63 360 0.0 0.0 0.00 0.32 0.32 81 1018.4
20210515083044 63 360 0.0 0.0 0.00 0.32 0.32 81 1018.2
20210515082535 63 360 0.0 0.0 0.00 0.32 0.32 83 1018.4
20210515082035 63 312 0.0 0.0 0.00 0.32 0.32 84 1018.5
20210515081034 62 296 0.0 0.0 0.00 0.32 0.32 83 1018.4
20210515080537 63 360 0.0 0.0 0.00 0.32 0.32 83 1018.2
20210515080126 63 360 0.0 0.0 0.00 0.32 0.32 82 1018.1
20210515075548 63 262 0.0 0.0 0.00 0.32 0.32 81 1017.8
20210515075034 64 244 0.0 0.0 0.00 0.32 0.32 80 1017.5
20210515074605 64 178 0.0 0.0 0.00 0.32 0.32 79 1017.3
20210515074119 65 360 0.0 0.0 0.00 0.32 0.32 79 1017.5
20210515073533 64 163 0.0 0.0 0.00 0.32 0.32 79 1017.6
20210515073045 65 142 0.0 0.0 0.00 0.32 0.32 78 1017.3
20210515072530 65 142 0.0 0.0 0.00 0.32 0.32 78 1017.3
20210515072045 65 115 0.0 0.0 0.00 0.32 0.32 78 1017.3
20210515071547 65 136 0.0 0.0 0.00 0.32 0.32 77 1017.5
20210515071031 65 151 0.0 0.0 0.00 0.32 0.32 77 1017.6
20210515070530 66 123 0.0 0.0 0.00 0.32 0.32 76 1017.6
20210515070030 66 131 0.0 0.0 0.00 0.32 0.32 76 1017.7
20210515065534 66 147 0.0 0.0 0.00 0.32 0.32 76 1017.9
20210515065029 66 165 0.0 0.0 0.00 0.32 0.32 76 1018.4
20210515064640 66 360 0.0 0.0 0.00 0.32 0.32 77 1018.6
20210515064036 66 360 0.0 0.0 0.00 0.32 0.32 77 1018.8
20210515063532 65 176 0.0 0.0 0.00 0.32 0.32 77 1018.6
20210515063057 65 360 0.0 0.0 0.00 0.32 0.32 78 1019.3
20210515062526 65 360 0.0 0.0 0.00 0.32 0.32 79 1019.7
20210515062026 65 360 0.0 0.0 0.00 0.32 0.32 78 1020.0
20210515061553 66 360 0.0 0.0 0.00 0.32 0.32 76 1019.6
20210515060535 67 360 0.0 0.0 0.00 0.32 0.32 77 1018.3
20210515060115 67 192 0.0 0.0 0.00 0.32 0.32 79 1018.2
20210515055524 67 360 0.0 0.0 0.00 0.32 0.32 79 1018.2
20210515055047 67 130 0.0 0.0 0.00 0.32 0.32 79 1018.2
20210515054607 67 360 0.0 0.0 0.00 0.32 0.32 79 1018.1
20210515054024 67 104 0.0 0.0 0.01 0.32 0.32 78 1017.8
20210515053525 67 101 0.0 0.0 0.03 0.32 0.32 76 1017.3
20210515053042 68 115 0.0 0.0 0.04 0.32 0.32 76 1017.6
20210515052526 68 107 0.0 0.0 0.06 0.32 0.32 77 1018.3
20210515052019 67 122 0.0 0.0 0.07 0.32 0.32 77 1018.8
20210515051523 67 101 0.0 0.0 0.09 0.32 0.32 77 1019.2
20210515051019 67 106 0.0 0.0 0.09 0.32 0.32 77 1019.0
20210515050524 67 107 0.0 0.0 0.09 0.32 0.32 78 1019.3
20210515050023 66 123 0.0 0.0 0.09 0.32 0.32 79 1019.4
20210515045518 65 113 0.0 0.0 0.09 0.32 0.32 80 1019.4
20210515045017 65 314 0.0 0.0 0.09 0.32 0.32 79 1019.7
20210515044528 66 301 0.0 0.0 0.09 0.32 0.32 78 1020.1
20210515044018 66 300 0.0 0.0 0.08 0.31 0.31 76 1019.9
20210515043517 67 300 0.0 10.0 0.06 0.28 0.28 74 1019.7
20210515042521 69 300 0.0 0.0 0.03 0.26 0.26 68 1019.9
20210515042015 71 300 0.0 0.0 0.06 0.25 0.25 62 1019.7
20210515041535 71 355 0.0 0.0 0.15 0.23 0.23 61 1019.8
20210515041015 70 5 0.0 0.0 0.23 0.23 0.23 62 1019.4
20210515040514 71 36 0.0 0.0 0.23 0.23 0.23 64 1019.2
20210515040046 72 72 0.0 0.0 0.23 0.23 0.23 60 1018.9
20210515035525 72 360 0.0 0.0 0.23 0.23 0.23 61 1018.2
20210515035014 71 360 0.0 0.0 0.23 0.23 0.23 61 1018.0
20210515034530 70 94 0.0 0.0 0.23 0.23 0.23 63 1017.8
20210515034020 70 360 0.0 0.0 0.23 0.23 0.23 65 1017.6
20210515033026 69 156 0.0 0.0 0.23 0.23 0.23 66 1016.9
20210515032511 70 161 0.0 0.0 0.23 0.23 0.23 64 1016.6
20210515032011 72 140 0.0 0.0 0.18 0.18 0.18 60 1016.4
20210515031517 76 154 0.0 0.0 0.07 0.07 0.07 54 1016.5
20210515031009 77 115 0.0 1.0 0.00 0.00 0.00 44 1017.3
20210515030509 78 92 0.0 1.0 0.00 0.00 0.00 43 1017.3
20210515030017 78 360 0.0 0.0 0.00 0.00 0.00 43 1017.0
20210515025513 78 93 0.0 0.0 0.00 0.00 0.00 42 1016.5
20210515025009 79 125 0.0 0.0 0.00 0.00 0.00 42 1015.9
20210515024509 79 360 0.0 0.0 0.00 0.00 0.00 41 1015.8
20210515024008 79 109 0.0 0.0 0.00 0.00 0.00 41 1015.7
20210515023509 79 360 0.0 0.0 0.00 0.00 0.00 41 1015.8
20210515022008 80 123 0.0 0.0 0.00 0.00 0.00 40 1015.5
20210515021508 80 146 0.0 0.0 0.00 0.00 0.00 38 1015.3
20210515021008 80 130 0.0 0.0 0.00 0.00 0.00 38 1015.2
20210515020508 80 123 0.0 0.0 0.00 0.00 0.00 38 1015.1
20210515020010 81 133 0.0 0.0 0.00 0.00 0.00 37 1015.1
20210515015504 81 142 0.0 0.0 0.00 0.00 0.00 36 1014.8
20210515015005 82 165 0.0 0.0 0.00 0.00 0.00 33 1014.8
20210515014506 82 360 0.0 0.0 0.00 0.00 0.00 33 1014.8
20210515014005 83 136 0.0 0.0 0.00 0.00 0.00 33 1014.6
20210515013505 83 360 0.0 0.0 0.00 0.00 0.00 34 1014.3
20210515013007 83 144 0.0 0.0 0.00 0.00 0.00 34 1014.3
20210515012506 83 103 0.0 0.0 0.00 0.00 0.00 33 1014.1
20210515012009 83 123 0.0 0.0 0.00 0.00 0.00 33 1014.0
20210515011505 84 360 0.0 0.0 0.00 0.00 0.00 32 1013.9
20210515011010 84 360 0.0 0.0 0.00 0.00 0.00 33 1013.7
20210515010503 83 121 0.0 0.0 0.00 0.00 0.00 34 1013.7
20210515010003 84 122 0.0 0.0 0.00 0.00 0.00 34 1014.1
20210515005503 84 136 0.0 0.0 0.00 0.00 0.00 31 1014.3
20210515005001 84 139 0.0 0.0 0.00 0.00 0.00 30 1014.4
20210515004618 84 147 0.0 0.0 0.00 0.00 0.00 30 1014.5
20210515004059 84 130 0.0 0.0 0.00 0.00 0.00 30 1014.5
20210515003148 85 108 0.0 0.0 0.00 0.00 0.00 31 1014.3
20210515002610 85 132 0.0 0.0 0.00 0.00 0.00 31 1014.4
20210515001632 87 105 0.0 0.0 0.00 0.00 0.00 29 1014.5
20210515001057 87 126 0.0 0.0 0.00 0.00 0.00 29 1014.4
20210515000606 87 126 0.0 0.0 0.00 0.00 0.00 30 1014.5
20210515000125 87 106 0.0 0.0 0.00 0.00 0.00 29 1014.5
20210514235558 88 121 0.0 0.0 0.00 0.00 0.00 29 1014.5
20210514235102 88 103 0.0 0.0 0.00 0.00 0.00 27 1014.7
20210514234617 88 114 0.0 0.0 0.00 0.00 0.00 27 1014.7
20210514234103 89 138 0.0 0.0 0.00 0.00 0.00 27 1014.8
20210514233552 89 109 0.0 0.0 0.00 0.00 0.00 26 1014.7
20210514233120 89 111 0.0 0.0 0.00 0.00 0.00 26 1014.9
20210514232556 89 107 0.0 0.0 0.00 0.00 0.00 25 1015.0
20210514232051 89 140 0.0 0.0 0.00 0.00 0.00 20 1014.9
20210514231710 89 123 0.0 0.0 0.00 0.00 0.00 23 1014.8
20210514231050 89 141 0.0 0.0 0.00 0.00 0.00 20 1014.8
20210514230603 90 140 0.0 0.0 0.00 0.00 0.00 20 1015.0
20210514230142 90 120 0.0 0.0 0.00 0.00 0.00 19 1015.0
20210514225557 90 157 0.0 0.0 0.00 0.00 0.00 19 1015.0
20210514225048 89 360 0.0 0.0 0.00 0.00 0.00 20 1014.9
20210514224625 89 109 0.0 0.0 0.00 0.00 0.00 20 1015.0
20210514223551 89 139 0.0 0.0 0.00 0.00 0.00 19 1015.1
20210514223110 90 103 0.0 0.0 0.00 0.00 0.00 19 1015.3
20210514222544 90 360 0.0 0.0 0.00 0.00 0.00 20 1015.3
20210514222050 90 139 0.0 0.0 0.00 0.00 0.00 20 1015.5
20210514221628 90 360 0.0 0.0 0.00 0.00 0.00 21 1015.8
20210514221107 89 109 0.0 0.0 0.00 0.00 0.00 21 1015.7
20210514220544 89 141 0.0 0.0 0.00 0.00 0.00 21 1015.7
20210514220055 89 128 0.0 0.0 0.00 0.00 0.00 22 1016.1
20210514215546 90 360 0.0 0.0 0.00 0.00 0.00 21 1016.0
20210514215009 89 122 0.0 0.0 0.00 0.00 0.00 22 1016.1
20210514214537 90 124 0.0 0.0 0.00 0.00 0.00 21 1016.3
20210514214008 90 360 0.0 0.0 0.00 0.00 0.00 22 1016.4
20210514213508 90 146 0.0 0.0 0.00 0.00 0.00 22 1016.5
20210514213017 90 126 0.0 0.0 0.00 0.00 0.00 21 1016.8
20210514212507 89 130 0.0 0.0 0.00 0.00 0.00 22 1016.9
20210514212003 89 109 0.0 0.0 0.00 0.00 0.00 22 1017.1
20210514211505 90 100 0.0 0.0 0.00 0.00 0.00 22 1017.2
20210514211006 89 103 0.0 0.0 0.00 0.00 0.00 23 1017.2
20210514210501 89 360 0.0 0.0 0.00 0.00 0.00 23 1017.4
20210514205559 89 360 0.0 0.0 0.00 0.00 0.00 23 1017.6
20210514205102 88 107 0.0 0.0 0.00 0.00 0.00 25 1017.7
20210514204735 89 136 0.0 0.0 0.00 0.00 0.00 25 1017.8
20210514204105 89 360 0.0 0.0 0.00 0.00 0.00 24 1018.0
20210514203127 89 144 0.0 0.0 0.00 0.00 0.00 25 1018.1
20210514202629 89 360 0.0 0.0 0.00 0.00 0.00 25 1018.4
20210514202126 89 360 0.0 0.0 0.00 0.00 0.00 25 1018.6
20210514201636 89 360 0.0 0.0 0.00 0.00 0.00 26 1018.6
20210514201049 88 360 0.0 0.0 0.00 0.00 0.00 26 1018.8
20210514200115 88 360 0.0 0.0 0.00 0.00 0.00 26 1018.8
20210514195547 88 360 0.0 0.0 0.00 0.00 0.00 26 1019.1
20210514195046 87 109 0.0 0.0 0.00 0.00 0.00 27 1019.1
20210514194707 87 360 0.0 0.0 0.00 0.00 0.00 27 1019.2
20210514194051 87 132 0.0 0.0 0.00 0.00 0.00 28 1019.4
20210514193546 87 104 0.0 0.0 0.00 0.00 0.00 27 1019.5
20210514193111 87 360 0.0 0.0 0.00 0.00 0.00 28 1019.5
20210514192552 87 137 0.0 0.0 0.00 0.00 0.00 29 1019.6
20210514192042 86 134 0.0 0.0 0.00 0.00 0.00 29 1019.7
20210514191604 86 360 0.0 0.0 0.00 0.00 0.00 28 1019.9
20210514191037 86 360 0.0 0.0 0.00 0.00 0.00 30 1020.1
20210514190540 86 101 0.0 0.0 0.00 0.00 0.00 30 1020.1
20210514190059 86 122 0.0 0.0 0.00 0.00 0.00 31 1020.1
20210514185545 85 103 0.0 0.0 0.00 0.00 0.00 31 1020.4
20210514185035 85 134 0.0 0.0 0.00 0.00 0.00 31 1020.3
20210514184534 85 360 0.0 0.0 0.00 0.00 0.00 32 1020.4
20210514184035 85 360 0.0 0.0 0.00 0.00 0.00 31 1020.8
20210514183529 85 360 0.0 0.0 0.00 0.00 0.00 32 1020.7
20210514183057 85 360 0.0 0.0 0.00 0.00 0.00 33 1020.9
20210514182533 85 360 0.0 0.0 0.00 0.00 0.00 33 1020.9
20210514182029 84 360 0.0 0.0 0.00 0.00 0.00 34 1021.0
20210514181525 83 360 0.0 0.0 0.00 0.00 0.00 35 1021.3
20210514181029 83 196 0.0 0.0 0.00 0.00 0.00 35 1021.2
20210514180534 82 360 0.0 0.0 0.00 0.00 0.00 37 1021.5
20210514180028 82 101 0.0 0.0 0.00 0.00 0.00 37 1021.4
20210514175526 82 110 0.0 0.0 0.00 0.00 0.00 38 1021.7
20210514175021 81 360 0.0 0.0 0.00 0.00 0.00 38 1021.6
20210514174526 81 131 0.0 0.0 0.00 0.00 0.00 38 1021.7
20210514174022 81 360 0.0 0.0 0.00 0.00 0.00 39 1021.9
20210514173515 81 360 0.0 0.0 0.00 0.00 0.00 39 1021.9
20210514173020 81 360 0.0 0.0 0.00 0.00 0.00 40 1022.0
20210514172513 80 360 0.0 0.0 0.00 0.00 0.00 41 1022.0
20210514172015 79 360 0.0 0.0 0.00 0.00 0.00 42 1022.0
20210514171507 79 360 0.0 0.0 0.00 0.00 0.00 43 1022.3
20210514171008 78 146 0.0 0.0 0.00 0.00 0.00 43 1022.5
20210514170504 78 142 0.0 0.0 0.00 0.00 0.00 44 1022.5
20210514170005 77 360 0.0 0.0 0.00 0.00 0.00 44 1022.5
20210514165502 77 128 0.0 0.0 0.00 0.00 0.00 45 1022.3
20210514164657 77 360 0.0 0.0 0.00 0.00 0.00 46 1022.5